����,�C�@��,���@�x,���@��,���@��,���@��,�ϐ�[,�ϐ�d��1,�ϐ�d��2,�ϐ�d��3,�J�@��,�~��o��,�~�ይ�x�i��j,�~�ይ�x�i���j,�~�ይ�x�i���j,���,�Z��~����1,�Z��~����2,�Z��~����3,�Z��~����4,�J�ᔻ��,�Z���T���x
����,��,��,kw/�u,��,m/s,cm,kg/�u,kg/�u,kg/�u,mm,1=�L_0=��,1=�L_0=��,1=�L_0=��,1=�L_0=��,p,p,p,p,p,��,��
2018-01-01 00:00:00,4.14,89.50,0.003,185.30,0.93,7.5,52.00,0.00,-283.01,0.0,0,0,0,0,0,108.00,116.00,115.00,141.00,3.32,-167.50
2018-01-01 00:10:00,3.90,88.10,0.000,200.30,1.04,7.4,52.67,0.00,-283.01,0.5,0,0,0,0,0,175.00,187.00,187.00,192.00,2.78,-167.20
2018-01-01 00:20:00,3.69,87.80,0.000,192.10,0.99,7.3,52.67,0.00,-283.68,0.0,0,0,0,0,0,154.00,186.00,187.00,194.00,2.62,-167.00
2018-01-01 00:30:00,3.24,88.30,0.000,201.40,0.77,7.2,52.00,0.00,-283.01,0.0,0,0,0,0,0,130.00,140.00,139.00,146.00,2.29,-167.50
2018-01-01 00:40:00,3.24,89.00,0.000,198.50,1.06,7.2,52.00,0.00,-284.36,0.0,0,0,0,0,0,87.00,116.00,115.00,120.00,2.21,-167.70
2018-01-01 00:50:00,3.12,88.70,0.000,179.40,0.95,7.3,51.66,0.00,-285.38,0.0,0,0,0,0,0,87.00,70.00,93.00,97.00,2.08,-168.10
2018-01-01 01:00:00,3.48,88.90,0.001,173.30,1.02,7.0,52.34,0.00,-287.41,0.0,0,0,0,0,0,64.00,92.00,69.00,72.00,2.45,-168.20
2018-01-01 01:10:00,3.69,87.50,0.001,191.50,0.56,7.2,51.66,0.00,-287.75,0.0,0,0,0,0,0,65.00,69.00,69.00,71.00,2.54,-168.30
2018-01-01 01:20:00,3.90,84.70,0.000,194.30,0.41,7.1,51.66,0.00,-293.16,0.0,0,0,0,0,0,65.00,46.00,69.00,71.00,2.62,-168.10
2018-01-01 01:30:00,3.90,83.50,0.001,173.50,0.38,7.2,52.00,0.00,-288.08,0.0,0,0,0,0,0,43.00,69.00,46.00,47.00,2.70,-168.60
2018-01-01 01:40:00,4.97,79.35,0.000,223.40,1.43,7.2,51.66,0.00,-288.76,0.0,0,0,0,0,0,43.00,46.00,45.00,48.00,3.44,-168.40
2018-01-01 01:50:00,5.34,79.79,0.000,208.00,1.32,7.2,50.98,0.00,-285.71,0.0,0,0,0,0,0,43.00,46.00,46.00,70.00,3.73,-168.00
2018-01-01 02:00:00,5.38,79.15,0.000,198.80,0.68,7.1,50.98,0.00,-283.01,0.0,0,0,0,0,0,43.00,45.00,46.00,47.00,3.77,-168.40
2018-01-01 02:10:00,5.30,79.49,0.000,194.60,0.46,7.1,51.66,0.00,-281.65,0.0,0,0,0,0,0,42.00,46.00,68.00,47.00,3.77,-167.70
2018-01-01 02:20:00,5.17,79.93,0.000,195.50,0.35,7.3,50.64,0.00,-278.27,0.0,0,0,0,0,0,65.00,69.00,46.00,71.00,3.69,-167.80
2018-01-01 02:30:00,5.42,79.35,0.002,201.90,0.56,7.8,50.98,0.00,-276.24,0.0,0,0,0,0,0,43.00,46.00,46.00,47.00,4.06,-167.20
2018-01-01 02:40:00,6.04,67.94,0.000,220.00,3.11,7.2,50.30,0.00,-278.27,0.0,0,0,0,0,0,43.00,46.00,68.00,69.00,4.22,-167.10
2018-01-01 02:50:00,6.20,68.55,0.001,220.20,2.95,7.0,50.98,0.00,-278.27,0.0,0,0,0,0,0,43.00,45.00,46.00,47.00,4.63,-166.60
2018-01-01 03:00:00,6.04,69.03,0.002,213.00,1.95,6.8,51.32,0.00,-275.90,0.0,0,0,0,0,0,43.00,69.00,46.00,46.00,4.72,-166.40
2018-01-01 03:10:00,6.04,71.83,0.000,222.80,2.60,7.1,50.30,0.00,-272.51,0.0,0,0,0,0,0,64.00,46.00,68.00,69.00,4.92,-165.60
2018-01-01 03:20:00,5.54,76.27,0.000,218.40,1.30,7.1,50.98,0.00,-272.51,0.0,0,0,0,0,0,43.00,69.00,46.00,47.00,4.43,-165.40
2018-01-01 03:30:00,5.87,73.97,0.000,220.30,1.83,7.1,49.97,0.00,-270.48,0.0,0,0,0,0,0,65.00,69.00,69.00,96.00,4.59,-165.20
2018-01-01 03:40:00,6.28,69.19,0.000,213.30,1.77,6.9,50.30,0.00,-271.16,0.0,0,0,0,0,0,62.00,92.00,69.00,71.00,4.92,-165.00
2018-01-01 03:50:00,6.24,65.91,0.000,206.90,2.03,6.7,50.30,0.00,-271.50,0.0,0,0,0,0,0,46.00,69.00,69.00,71.00,5.09,-164.60
2018-01-01 04:00:00,6.33,65.64,0.000,205.80,1.90,6.7,50.30,0.00,-270.48,0.0,0,0,0,0,0,65.00,46.00,69.00,48.00,5.13,-164.70
2018-01-01 04:10:00,6.20,64.69,0.000,215.30,1.96,6.7,50.64,0.00,-270.82,0.0,0,0,0,0,0,43.00,69.00,69.00,70.00,5.00,-164.20
2018-01-01 04:20:00,6.28,62.80,0.001,184.80,1.22,6.7,50.64,0.00,-271.16,0.0,0,0,0,0,0,43.00,46.00,46.00,71.00,5.00,-163.90
2018-01-01 04:30:00,6.28,61.31,0.000,171.40,1.31,6.7,50.30,0.00,-274.20,0.0,0,0,0,0,0,64.00,69.00,69.00,47.00,4.92,-163.40
2018-01-01 04:40:00,6.12,61.75,0.002,166.90,1.44,6.9,49.29,0.00,-274.20,0.0,0,0,0,0,0,43.00,45.00,46.00,70.00,5.17,-163.70
2018-01-01 04:50:00,6.28,59.95,0.000,170.60,1.54,6.9,49.63,0.00,-272.85,0.0,0,0,0,0,0,43.00,46.00,69.00,47.00,5.25,-163.70
2018-01-01 05:00:00,6.03,60.12,0.001,193.30,1.25,6.9,48.27,0.00,-274.20,0.0,0,0,0,0,0,43.00,46.00,46.00,48.00,5.08,-163.60
2018-01-01 05:10:00,5.78,65.17,0.000,268.90,1.10,6.2,50.64,0.00,-272.17,0.0,0,0,0,0,0,43.00,46.00,46.00,47.00,4.79,-163.20
2018-01-01 05:20:00,4.78,77.42,0.000,253.60,1.20,6.7,50.30,0.00,-273.19,0.0,0,0,0,0,0,43.00,46.00,46.00,47.00,3.63,-163.30
2018-01-01 05:30:00,4.46,79.32,0.000,256.40,1.02,6.9,50.30,0.00,-276.24,1.0,0,0,0,0,0,43.00,69.00,68.00,71.00,2.98,-163.30
2018-01-01 05:40:00,4.30,82.40,0.000,216.50,3.42,6.4,50.64,0.00,-281.31,0.5,0,0,0,0,0,524.00,606.00,549.00,520.00,2.98,-163.40
2018-01-01 05:50:00,4.35,82.20,0.001,205.20,1.74,6.3,51.66,0.00,-284.36,0.5,0,0,0,0,0,477.00,606.00,615.00,626.00,3.07,-163.50
2018-01-01 06:00:00,4.47,82.60,0.000,214.20,2.21,6.5,51.66,0.00,-286.39,0.0,0,0,0,0,0,289.00,355.00,329.00,391.00,3.11,-164.00
2018-01-01 06:10:00,4.35,82.30,0.000,189.30,0.70,6.5,50.98,0.00,-288.42,0.0,0,0,0,0,0,243.00,299.00,304.00,295.00,2.99,-165.20
2018-01-01 06:20:00,4.23,82.50,0.000,189.10,0.56,6.5,51.66,0.00,-289.78,0.0,0,0,0,0,0,176.00,216.00,209.00,194.00,3.07,-164.90
2018-01-01 06:30:00,4.14,83.10,0.002,208.40,2.08,6.1,50.98,0.00,-288.76,0.5,0,0,0,0,0,132.00,163.00,162.00,164.00,2.87,-165.70
2018-01-01 06:40:00,3.86,85.20,0.000,203.60,1.84,6.2,51.66,0.00,-289.44,0.5,0,0,0,0,0,268.00,307.00,343.00,315.00,2.70,-166.40
2018-01-01 06:50:00,3.57,86.50,0.000,196.90,1.12,6.2,50.98,0.00,-290.12,0.5,0,0,0,0,0,382.00,453.00,464.00,444.00,2.46,-166.90
2018-01-01 07:00:00,3.32,87.20,0.002,160.80,1.39,6.0,51.32,0.00,-290.79,0.0,0,0,0,0,0,404.00,453.00,477.00,496.00,2.21,-167.00
2018-01-01 07:10:00,3.16,87.30,0.007,175.30,1.03,6.4,52.34,0.00,-290.79,0.0,0,0,0,0,0,289.00,332.00,351.00,393.00,2.12,-167.20
2018-01-01 07:20:00,3.08,87.40,0.004,159.30,1.21,6.0,50.98,0.00,-293.50,0.0,0,0,0,0,1,198.00,233.00,232.00,238.00,2.21,-167.90
2018-01-01 07:30:00,3.07,87.30,0.009,183.60,0.62,6.0,51.32,0.00,-299.26,0.5,0,0,0,0,1,192.00,193.00,232.00,217.00,1.39,-168.50
2018-01-01 07:40:00,2.99,87.10,0.000,216.40,1.10,5.8,52.00,0.00,-296.55,1.0,0,0,0,0,0,296.00,324.00,377.00,339.00,1.59,-168.70
2018-01-01 07:50:00,2.83,88.10,0.012,192.90,1.29,6.0,53.01,0.00,-295.53,0.5,0,0,0,0,0,554.00,654.00,727.00,601.00,1.92,-168.80
2018-01-01 08:00:00,2.74,88.90,0.005,183.40,0.43,5.7,53.69,0.00,-296.89,1.0,0,0,0,0,0,605.00,732.00,818.00,784.00,1.88,-169.00
2018-01-01 08:10:00,2.99,89.40,0.004,195.00,1.52,5.6,53.69,0.00,-294.85,0.0,0,0,0,0,0,546.00,654.00,731.00,704.00,2.12,-169.50
2018-01-01 08:20:00,2.95,89.40,0.033,196.10,1.24,5.9,53.69,0.00,-295.87,0.5,0,0,0,0,0,686.00,807.00,898.00,833.00,2.25,-169.60
2018-01-01 08:30:00,2.74,89.30,0.027,172.50,0.85,5.9,53.69,0.00,-295.19,0.5,0,0,0,0,0,402.00,526.00,594.00,593.00,2.04,-169.40
2018-01-01 08:40:00,2.50,89.60,0.000,184.80,1.01,5.9,53.35,0.00,-299.26,0.0,0,0,0,0,0,309.00,347.00,397.00,412.00,1.59,-169.60
2018-01-01 08:50:00,2.00,89.60,0.019,164.80,1.54,5.6,53.01,0.00,-301.29,1.0,0,0,0,0,6,499.00,561.00,640.00,542.00,1.14,-169.70
2018-01-01 09:00:00,1.92,90.40,0.014,167.90,0.78,5.5,54.71,0.00,-298.92,0.5,0,0,0,0,4,687.00,807.00,927.00,888.00,1.14,-169.90
2018-01-01 09:10:00,1.76,90.80,0.007,137.30,0.98,5.7,54.37,0.00,-298.58,0.5,0,0,0,0,3,617.00,702.00,801.00,775.00,1.02,-170.10
2018-01-01 09:20:00,1.76,91.20,0.031,171.60,1.77,5.6,55.04,0.00,-297.90,1.0,0,0,0,0,2,546.00,651.00,769.00,743.00,1.06,-170.40
2018-01-01 09:30:00,1.96,91.60,0.049,185.10,1.30,5.6,55.72,0.00,-299.59,0.0,0,0,0,0,0,601.00,704.00,846.00,814.00,1.51,-170.80
2018-01-01 09:40:00,2.33,91.20,0.065,181.70,0.36,5.6,55.72,0.00,-297.90,0.5,0,0,0,0,0,461.00,550.00,645.00,642.00,1.96,-171.00
2018-01-01 09:50:00,2.58,90.40,0.032,166.80,0.41,5.6,55.04,0.00,-296.21,0.0,0,0,0,0,0,310.00,377.00,471.00,464.00,1.92,-171.00
2018-01-01 10:00:00,2.54,89.70,0.072,188.80,0.21,5.8,54.37,0.00,-295.87,0.0,0,0,0,0,0,264.00,305.00,374.00,409.00,2.12,-171.10
2018-01-01 10:10:00,2.58,89.40,0.032,170.00,0.56,6.0,55.04,0.00,-300.27,0.0,0,0,0,0,0,220.00,258.00,303.00,336.00,1.96,-171.20
2018-01-01 10:20:00,2.78,89.30,0.078,167.60,1.24,5.8,54.37,0.00,-295.19,0.0,0,0,0,0,0,220.00,257.00,324.00,317.00,2.29,-170.90
2018-01-01 10:30:00,2.74,88.70,0.045,146.90,2.12,5.6,53.69,0.00,-293.16,0.0,0,0,0,0,1,220.00,234.00,280.00,314.00,2.12,-170.50
2018-01-01 10:40:00,2.74,88.20,0.031,183.00,2.02,5.8,53.69,0.00,-290.79,0.0,0,0,0,0,7,215.00,233.00,278.00,286.00,1.67,-170.50
2018-01-01 10:50:00,2.66,88.40,0.054,167.30,1.38,6.0,53.69,0.00,-290.12,0.5,0,0,0,0,0,158.00,186.00,184.00,215.00,2.21,-170.70
2018-01-01 11:00:00,2.66,88.40,0.048,155.60,1.69,5.8,54.03,0.00,-288.76,0.5,0,0,0,0,0,220.00,234.00,303.00,290.00,2.04,-170.50
2018-01-01 11:10:00,2.91,88.10,0.045,175.80,1.88,6.0,54.03,0.00,-287.07,0.0,0,0,0,0,0,221.00,258.00,304.00,309.00,2.21,-170.80
2018-01-01 11:20:00,2.74,87.70,0.070,184.60,2.54,6.0,53.01,0.00,-286.73,0.0,0,0,0,0,0,221.00,258.00,301.00,285.00,2.17,-170.00
2018-01-01 11:30:00,2.66,88.40,0.082,158.80,2.08,6.0,53.69,0.00,-285.04,0.0,0,0,0,0,0,220.00,281.00,282.00,286.00,2.12,-170.30
2018-01-01 11:40:00,2.70,88.00,0.047,185.30,0.87,5.9,52.67,0.00,-285.71,0.0,0,0,0,0,0,175.00,234.00,255.00,260.00,2.04,-169.80
2018-01-01 11:50:00,2.91,87.40,0.082,178.40,0.26,5.9,52.34,0.00,-290.79,0.0,0,0,0,0,0,175.00,189.00,231.00,237.00,2.33,-170.00
2018-01-01 12:00:00,2.87,86.50,0.040,161.80,1.07,5.6,52.67,0.00,-286.39,0.0,0,0,0,0,0,175.00,207.00,208.00,216.00,2.37,-169.90
2018-01-01 12:10:00,2.99,86.50,0.051,172.30,1.53,5.6,52.34,0.00,-284.70,0.0,0,0,0,0,0,132.00,163.00,185.00,197.00,2.45,-169.40
2018-01-01 12:20:00,3.32,85.00,0.070,174.40,1.55,5.6,51.66,0.00,-284.02,0.0,0,0,0,0,0,153.00,162.00,191.00,207.00,2.70,-169.50
2018-01-01 12:30:00,3.40,84.20,0.047,180.20,1.38,5.5,52.00,0.00,-282.67,0.0,0,0,0,0,0,131.00,163.00,177.00,166.00,2.78,-169.20
2018-01-01 12:40:00,3.36,83.90,0.034,172.80,1.34,5.6,50.30,0.00,-280.30,0.0,0,0,0,0,0,131.00,163.00,185.00,188.00,2.70,-169.00
2018-01-01 12:50:00,3.57,82.80,0.035,165.60,1.21,5.8,50.98,0.00,-279.96,0.0,0,0,0,0,0,131.00,139.00,161.00,165.00,2.78,-168.50
2018-01-01 13:00:00,3.77,81.20,0.051,197.20,0.67,5.8,50.30,0.00,-276.91,0.0,0,0,0,0,0,109.00,139.00,139.00,141.00,3.15,-168.50
2018-01-01 13:10:00,3.65,80.60,0.042,235.30,0.49,5.9,50.64,0.00,-279.28,0.0,0,0,0,0,0,108.00,115.00,137.00,141.00,3.11,-168.70
2018-01-01 13:20:00,3.82,77.29,0.024,194.70,0.76,5.6,50.30,0.00,-281.31,0.0,0,0,0,0,0,87.00,116.00,138.00,117.00,3.15,-168.30
2018-01-01 13:30:00,3.90,77.96,0.044,211.70,0.67,5.6,48.27,0.00,-281.31,0.0,0,0,0,0,0,108.00,115.00,115.00,141.00,3.11,-167.90
2018-01-01 13:40:00,4.27,74.88,0.056,208.50,0.35,5.3,48.27,0.00,-277.59,0.0,0,0,0,0,0,87.00,116.00,114.00,94.00,3.65,-167.80
2018-01-01 13:50:00,5.50,57.82,0.036,231.10,1.16,5.8,48.95,0.00,-276.57,0.0,0,0,0,0,0,65.00,92.00,92.00,116.00,4.26,-167.60
2018-01-01 14:00:00,5.71,57.62,0.044,251.50,0.95,5.6,48.95,0.00,-273.87,0.0,0,0,0,0,0,86.00,92.00,114.00,117.00,4.51,-166.70
2018-01-01 14:10:00,5.79,56.77,0.022,259.70,1.31,5.6,48.61,0.00,-271.50,0.0,0,0,0,0,0,87.00,93.00,110.00,93.00,4.55,-166.70
2018-01-01 14:20:00,5.63,55.25,0.015,288.00,1.32,5.4,48.95,0.00,-268.79,0.0,0,0,0,0,0,65.00,92.00,123.00,94.00,4.51,-165.70
2018-01-01 14:30:00,5.63,56.91,0.018,303.60,1.28,5.7,46.92,0.00,-268.45,0.0,0,0,0,0,0,86.00,115.00,91.00,117.00,4.31,-165.40
2018-01-01 14:40:00,5.62,56.19,0.020,253.40,1.06,5.6,47.93,0.00,-268.79,0.0,0,0,0,0,0,65.00,93.00,115.00,94.00,4.39,-165.10
2018-01-01 14:50:00,5.67,55.21,0.019,287.10,1.05,5.6,48.27,0.00,-267.77,0.0,0,0,0,0,0,86.00,92.00,91.00,95.00,4.68,-164.90
2018-01-01 15:00:00,5.58,54.13,0.016,287.90,1.04,5.7,46.58,0.00,-272.17,0.0,0,0,0,0,0,65.00,92.00,114.00,117.00,4.68,-164.40
2018-01-01 15:10:00,5.46,54.50,0.017,291.50,0.32,5.6,46.92,0.00,-271.16,0.0,0,0,0,0,0,65.00,115.00,92.00,94.00,4.76,-164.40
2018-01-01 15:20:00,5.53,55.75,0.016,257.80,0.62,6.0,46.24,0.00,-271.50,0.0,0,0,0,0,0,65.00,70.00,114.00,71.00,4.71,-164.10
2018-01-01 15:30:00,5.54,55.96,0.013,267.10,1.29,5.6,46.24,0.00,-272.51,0.0,0,0,0,0,0,65.00,92.00,91.00,94.00,4.67,-164.10
2018-01-01 15:40:00,5.50,55.04,0.017,277.50,1.05,5.7,46.24,0.00,-273.19,0.0,0,0,0,0,0,64.00,91.00,69.00,70.00,4.67,-164.10
2018-01-01 15:50:00,5.50,54.71,0.015,305.30,1.20,5.5,45.57,0.00,-273.87,0.0,0,0,0,0,0,65.00,69.00,91.00,94.00,4.76,-163.70
2018-01-01 16:00:00,5.54,52.17,0.009,229.70,1.52,5.8,46.92,0.00,-274.88,0.0,0,0,0,0,0,65.00,69.00,92.00,70.00,4.67,-163.70
2018-01-01 16:10:00,5.46,51.52,0.004,244.10,0.96,5.8,45.57,0.00,-275.22,0.0,0,0,0,0,0,43.00,77.00,68.00,71.00,4.67,-163.20
2018-01-01 16:20:00,5.54,51.96,0.006,264.30,1.44,5.2,46.92,0.00,-280.97,0.0,0,0,0,0,0,65.00,80.00,68.00,70.00,4.63,-163.40
2018-01-01 16:30:00,5.38,53.49,0.002,275.40,1.63,5.9,44.89,0.00,-283.00,0.0,0,0,0,0,0,43.00,50.00,69.00,70.00,4.51,-163.50
2018-01-01 16:40:00,5.38,55.89,0.000,281.10,1.94,5.6,45.57,0.00,-282.67,0.0,0,0,0,0,0,43.00,69.00,68.00,70.00,4.39,-163.50
2018-01-01 16:50:00,5.30,55.72,0.002,279.80,1.17,5.7,44.89,0.00,-283.34,0.0,0,0,0,0,0,44.00,69.00,69.00,47.00,4.55,-163.60
2018-01-01 17:00:00,5.42,55.08,0.000,290.00,1.38,6.2,46.92,0.00,-283.68,0.0,0,0,0,0,0,64.00,69.00,69.00,70.00,4.43,-163.40
2018-01-01 17:10:00,5.30,53.28,0.000,278.10,1.90,5.8,45.90,0.00,-285.04,0.0,0,0,0,0,0,43.00,69.00,68.00,70.00,4.47,-163.70
2018-01-01 17:20:00,5.33,51.69,0.001,285.40,1.79,5.8,44.89,0.00,-285.37,0.0,0,0,0,0,0,43.00,46.00,69.00,58.00,4.51,-163.50
2018-01-01 17:30:00,5.13,52.78,0.001,293.30,1.11,5.4,44.21,0.00,-286.39,0.0,0,0,0,0,0,43.00,69.00,68.00,58.00,4.35,-163.90
2018-01-01 17:40:00,5.30,52.44,0.002,269.50,0.72,6.0,46.24,0.00,-287.07,0.0,0,0,0,0,0,43.00,45.00,46.00,47.00,4.51,-163.80
2018-01-01 17:50:00,5.21,54.30,0.000,249.70,0.85,5.5,45.56,0.00,-293.16,0.0,0,0,0,0,0,43.00,46.00,46.00,47.00,4.35,-163.50
2018-01-01 18:00:00,5.30,51.46,0.001,235.00,1.39,5.8,44.89,0.00,-295.19,0.0,0,0,0,0,0,21.00,46.00,46.00,47.00,4.51,-163.60
2018-01-01 18:10:00,5.30,51.29,0.001,285.00,1.43,5.8,43.87,0.00,-292.82,0.0,0,0,0,0,0,43.00,46.00,45.00,46.00,4.55,-163.70
2018-01-01 18:20:00,5.26,52.71,0.000,284.10,1.03,5.7,45.57,0.00,-292.48,0.0,0,0,0,0,0,43.00,45.00,46.00,47.00,4.35,-163.20
2018-01-01 18:30:00,5.30,49.19,0.000,262.10,1.78,5.4,42.86,0.00,-294.18,0.0,0,0,0,0,0,21.00,46.00,46.00,46.00,4.51,-163.70
2018-01-01 18:40:00,5.21,49.15,0.001,231.30,0.78,5.1,43.53,0.00,-293.50,0.0,0,0,0,0,0,21.00,23.00,46.00,24.00,4.39,-163.80
2018-01-01 18:50:00,5.26,49.70,0.001,255.10,1.36,5.2,43.53,0.00,-293.50,0.0,0,0,0,0,0,43.00,45.00,46.00,46.00,4.59,-163.20
2018-01-01 19:00:00,5.17,52.13,0.000,236.40,1.00,5.3,45.57,0.00,-294.52,0.0,0,0,0,0,0,22.00,23.00,45.00,47.00,4.31,-163.90
2018-01-01 19:10:00,5.13,47.66,0.001,268.90,1.00,5.3,43.53,0.00,-294.85,0.0,0,0,0,0,0,21.00,23.00,24.00,23.00,4.43,-163.00
2018-01-01 19:20:00,5.17,51.93,0.000,270.40,1.54,5.3,43.53,0.00,-300.27,0.0,0,0,0,0,0,43.00,45.00,46.00,47.00,4.35,-163.80
2018-01-01 19:30:00,5.09,53.39,0.000,303.70,1.05,5.2,44.21,0.00,-302.64,0.0,0,0,0,0,0,21.00,23.00,23.00,23.00,4.35,-163.00
2018-01-01 19:40:00,4.97,52.95,0.000,269.40,1.23,5.4,42.86,0.00,-299.93,0.0,0,0,0,0,1,21.00,23.00,23.00,23.00,4.26,-163.60
2018-01-01 19:50:00,5.13,51.02,0.000,289.40,0.75,4.8,44.89,0.00,-299.93,0.0,0,0,0,0,0,22.00,46.00,46.00,46.00,4.35,-163.90
2018-01-01 20:00:00,5.05,52.64,0.001,295.30,1.27,5.6,43.20,0.00,-298.58,0.0,0,0,0,0,0,21.00,22.00,22.00,23.00,4.35,-163.80
2018-01-01 20:10:00,4.92,52.47,0.000,284.40,1.27,5.4,44.21,0.00,-299.26,0.0,0,0,0,0,0,21.00,23.00,23.00,23.00,4.30,-163.60
2018-01-01 20:20:00,5.13,50.74,0.000,249.90,1.42,5.2,44.55,0.00,-299.26,0.0,0,0,0,0,0,43.00,23.00,23.00,33.00,4.43,-163.90
2018-01-01 20:30:00,4.97,52.61,0.000,264.90,1.79,5.5,44.21,0.00,-299.26,0.0,0,0,0,0,0,21.00,23.00,46.00,37.00,4.26,-163.20
2018-01-01 20:40:00,4.76,55.62,0.000,251.60,1.08,5.2,44.55,0.00,-300.27,0.0,0,0,0,0,13,21.00,22.00,23.00,23.00,3.98,-163.80
2018-01-01 20:50:00,4.39,59.75,0.001,276.50,1.20,5.2,42.86,0.00,-306.03,0.0,0,0,0,0,16,22.00,23.00,23.00,24.00,3.61,-163.80
2018-01-01 21:00:00,4.47,59.28,0.000,228.80,1.18,5.0,43.53,0.00,-307.72,0.0,0,0,0,0,13,21.00,46.00,42.00,23.00,3.77,-164.40
2018-01-01 21:10:00,4.31,61.81,0.000,220.50,1.34,4.9,42.86,0.00,-304.67,0.0,0,0,0,0,12,22.00,22.00,27.00,46.00,3.44,-164.40
2018-01-01 21:20:00,3.77,64.59,0.000,225.60,1.57,5.5,42.18,0.00,-303.66,0.0,0,0,0,0,91,21.00,23.00,23.00,23.00,2.37,-164.60
2018-01-01 21:30:00,2.66,76.10,0.001,215.10,1.24,5.8,44.89,0.00,-306.70,0.0,0,0,0,0,343,21.00,23.00,23.00,23.00,1.51,-165.50
2018-01-01 21:40:00,2.79,76.64,0.001,322.40,0.27,5.2,44.89,0.00,-309.07,0.5,0,0,0,0,1,21.00,23.00,46.00,46.00,1.51,-166.50
2018-01-01 21:50:00,2.83,76.00,0.002,208.90,0.79,5.1,44.21,0.00,-310.43,0.0,0,0,0,0,7,22.00,45.00,23.00,23.00,1.59,-167.70
2018-01-01 22:00:00,2.74,74.64,0.000,204.30,1.14,5.0,44.89,0.00,-311.44,0.5,0,0,0,0,21,21.00,23.00,46.00,23.00,1.71,-168.20
2018-01-01 22:10:00,2.66,75.12,0.000,192.80,0.39,5.2,44.89,0.00,-312.46,0.0,0,0,0,0,22,43.00,23.00,23.00,46.00,1.63,-168.70
2018-01-01 22:20:00,2.33,78.91,0.000,158.80,0.66,5.3,44.55,0.00,-320.58,0.0,0,0,0,0,5,21.00,45.00,91.00,47.00,1.34,-169.00
2018-01-01 22:30:00,1.96,81.70,0.000,142.50,0.52,5.2,44.55,0.00,-322.95,0.0,0,0,0,0,0,65.00,46.00,92.00,94.00,1.14,-170.00
2018-01-01 22:40:00,2.00,83.60,0.000,68.89,0.39,5.0,44.55,0.00,-316.52,0.0,0,0,0,0,0,43.00,91.00,92.00,70.00,1.22,-169.70
2018-01-01 22:50:00,2.25,81.90,0.000,17.11,0.52,5.2,44.21,0.00,-316.86,0.0,0,0,0,0,0,65.00,69.00,69.00,71.00,1.39,-170.10
2018-01-01 23:00:00,2.79,76.20,0.001,183.70,0.42,5.0,44.89,0.00,-316.18,0.0,0,0,0,0,0,64.00,69.00,69.00,71.00,1.80,-170.20
2018-01-01 23:10:00,3.08,71.87,0.001,220.80,0.45,4.9,44.21,0.00,-316.52,0.0,0,0,0,0,0,43.00,69.00,68.00,70.00,2.12,-170.00
2018-01-01 23:20:00,3.48,69.57,0.000,227.70,1.22,5.0,44.21,0.00,-314.83,0.0,0,0,0,0,0,65.00,68.00,69.00,70.00,2.21,-170.80
2018-01-01 23:30:00,3.48,68.92,0.000,229.80,0.54,5.0,44.55,0.00,-315.17,0.0,0,0,0,0,0,42.00,46.00,68.00,46.00,2.29,-170.70
2018-01-01 23:40:00,3.48,69.60,0.001,221.30,0.80,5.0,43.53,0.00,-313.13,0.0,0,0,0,0,0,43.00,69.00,47.00,47.00,2.29,-170.20
2018-01-01 23:50:00,2.74,75.49,0.000,262.40,1.10,4.9,43.53,0.00,-319.91,0.0,0,0,0,0,52,43.00,46.00,46.00,47.00,1.51,-170.50
2018-01-02 00:00:00,1.84,83.60,0.000,226.40,1.85,5.4,44.89,0.00,-319.91,0.0,0,0,0,0,223,21.00,45.00,46.00,47.00,0.24,-170.30
2018-01-02 00:10:00,1.68,86.00,0.000,232.30,0.77,5.5,44.89,0.00,-316.18,0.5,0,0,0,0,45,43.00,23.00,23.00,46.00,0.52,-170.50
2018-01-02 00:20:00,1.55,87.50,0.001,244.40,0.89,5.8,45.56,0.00,-316.52,0.0,0,0,0,0,271,22.00,46.00,45.00,23.00,0.44,-170.70
2018-01-02 00:30:00,1.68,88.00,0.000,226.80,0.46,5.8,45.57,0.00,-317.53,0.5,0,0,0,0,49,21.00,22.00,46.00,47.00,0.77,-171.40
2018-01-02 00:40:00,1.51,88.50,0.000,214.40,0.90,6.2,46.24,0.00,-315.84,0.0,0,0,0,0,223,43.00,46.00,46.00,47.00,0.32,-171.30
2018-01-02 00:50:00,1.51,89.00,0.001,204.20,0.22,6.0,46.58,0.00,-317.20,0.5,0,0,0,0,15,21.00,23.00,45.00,46.00,0.24,-171.60
2018-01-02 01:00:00,1.31,89.10,0.000,74.26,0.24,6.2,45.90,0.00,-318.21,0.5,0,0,0,0,0,21.00,45.00,92.00,95.00,0.15,-171.80
2018-01-02 01:10:00,1.47,89.70,0.001,55.35,0.22,6.0,45.90,0.00,-317.54,0.0,0,0,0,0,0,65.00,69.00,92.00,71.00,0.52,-172.00
2018-01-02 01:20:00,1.51,90.00,0.001,73.57,0.17,6.1,46.58,0.00,-317.54,0.0,0,0,0,0,0,64.00,68.00,115.00,94.00,0.56,-171.50
2018-01-02 01:30:00,1.59,89.80,0.001,72.82,0.24,6.0,46.58,0.00,-324.98,0.0,0,0,0,0,0,65.00,92.00,92.00,94.00,0.48,-171.10
2018-01-02 01:40:00,1.92,88.20,0.001,18.89,0.26,6.2,46.24,0.00,-318.21,0.0,0,0,0,0,0,65.00,92.00,92.00,70.00,0.85,-171.90
2018-01-02 01:50:00,2.00,87.10,0.000,114.50,0.25,6.2,46.58,0.00,-317.87,0.0,0,0,0,0,0,65.00,69.00,80.00,95.00,0.93,-170.80
2018-01-02 02:00:00,2.00,86.00,0.001,151.30,0.20,5.8,46.58,0.00,-317.54,0.0,0,0,0,0,0,64.00,69.00,80.00,70.00,0.85,-171.70
2018-01-02 02:10:00,2.17,84.70,0.001,39.07,0.15,5.8,46.24,0.00,-315.84,0.0,0,0,0,0,0,43.00,69.00,69.00,70.00,1.26,-172.00
2018-01-02 02:20:00,2.74,78.50,0.000,324.20,0.80,6.1,45.90,0.00,-315.50,0.0,0,0,0,0,0,65.00,68.00,68.00,70.00,1.55,-171.90
2018-01-02 02:30:00,2.62,77.08,0.000,306.50,0.56,6.1,46.58,0.00,-311.78,0.0,0,0,0,0,0,43.00,46.00,46.00,47.00,1.39,-171.70
2018-01-02 02:40:00,2.58,76.57,0.001,351.40,0.24,6.2,46.24,0.00,-312.46,0.0,0,0,0,0,0,43.00,65.00,68.00,70.00,1.51,-171.30
2018-01-02 02:50:00,2.58,77.59,0.000,268.10,0.42,6.3,45.57,0.00,-318.55,0.0,0,0,0,0,0,43.00,50.00,46.00,46.00,1.39,-171.30
2018-01-02 03:00:00,2.66,77.76,0.000,228.30,0.15,5.9,45.57,0.00,-319.23,0.0,0,0,0,0,0,43.00,45.00,69.00,69.00,1.34,-171.80
2018-01-02 03:10:00,2.42,79.28,0.000,101.40,0.26,6.2,46.24,0.00,-312.46,0.0,0,0,0,0,0,43.00,46.00,46.00,46.00,1.22,-170.60
2018-01-02 03:20:00,2.42,79.01,0.000,355.00,0.27,6.0,46.24,0.00,-311.44,0.0,0,0,0,0,0,43.00,45.00,46.00,46.00,1.22,-170.30
2018-01-02 03:30:00,2.25,79.82,0.000,66.99,0.22,6.2,45.57,0.00,-309.41,0.0,0,0,0,0,8,43.00,46.00,46.00,46.00,1.10,-170.10
2018-01-02 03:40:00,2.09,81.50,0.000,45.05,0.26,6.2,45.57,0.00,-308.40,0.0,0,0,0,0,0,21.00,46.00,46.00,46.00,0.98,-170.40
2018-01-02 03:50:00,2.17,81.90,0.001,97.30,0.27,5.9,45.90,0.00,-308.40,0.0,0,0,0,0,0,43.00,45.00,23.00,23.00,1.14,-170.60
2018-01-02 04:00:00,2.17,81.50,0.001,165.80,0.20,6.0,45.57,0.00,-307.04,0.0,0,0,0,0,130,22.00,46.00,46.00,46.00,0.98,-170.20
2018-01-02 04:10:00,2.46,77.39,0.001,200.90,0.45,6.0,45.57,0.00,-308.06,0.0,0,0,0,0,13,21.00,23.00,46.00,46.00,1.14,-170.50
2018-01-02 04:20:00,2.66,75.19,0.000,182.00,0.23,6.2,45.57,0.00,-307.04,0.0,0,0,0,0,0,43.00,45.00,22.00,23.00,1.22,-170.10
2018-01-02 04:30:00,2.50,76.07,0.000,191.90,0.26,6.0,44.89,0.00,-313.13,0.0,0,0,0,0,0,22.00,23.00,46.00,46.00,1.22,-170.50
2018-01-02 04:40:00,2.79,71.29,0.000,233.80,0.61,6.0,45.23,0.00,-313.47,0.0,0,0,0,0,8,21.00,46.00,23.00,23.00,1.63,-169.70
2018-01-02 04:50:00,2.74,72.24,0.000,273.80,1.10,6.0,45.56,0.00,-308.05,0.0,0,0,0,0,15,21.00,22.00,46.00,46.00,1.51,-170.30
2018-01-02 05:00:00,2.79,71.63,0.000,335.70,0.25,6.1,45.23,0.00,-307.38,0.0,0,0,0,0,0,43.00,23.00,23.00,23.00,1.55,-169.80
2018-01-02 05:10:00,2.83,72.55,0.001,83.60,0.28,5.9,45.57,0.00,-305.69,0.0,0,0,0,0,0,21.00,46.00,45.00,23.00,1.55,-169.50
2018-01-02 05:20:00,2.83,73.49,0.000,67.12,0.31,6.0,44.89,0.00,-304.67,0.0,0,0,0,0,12,22.00,22.00,23.00,46.00,1.55,-169.60
2018-01-02 05:30:00,2.74,73.70,0.000,212.60,0.27,5.8,44.89,0.00,-303.66,0.0,0,0,0,0,0,21.00,46.00,45.00,24.00,1.63,-169.10
2018-01-02 05:40:00,2.66,73.76,0.000,193.90,0.23,5.8,45.57,0.00,-303.32,0.0,0,0,0,0,0,43.00,23.00,23.00,46.00,1.47,-169.10
2018-01-02 05:50:00,3.03,66.93,0.001,211.50,0.44,6.2,44.89,0.00,-309.75,0.0,0,0,0,0,44,21.00,45.00,23.00,23.00,1.80,-169.10
2018-01-02 06:00:00,2.91,68.45,0.000,224.00,0.23,6.0,44.89,0.00,-303.66,0.0,0,0,0,0,70,22.00,23.00,46.00,24.00,1.43,-169.30
2018-01-02 06:10:00,2.79,68.62,0.000,193.70,0.33,5.9,44.89,0.00,-305.01,0.0,0,0,0,0,0,21.00,23.00,23.00,46.00,1.55,-169.30
2018-01-02 06:20:00,2.66,71.53,0.000,28.16,0.22,6.0,44.89,0.00,-303.66,0.0,0,0,0,0,7,21.00,45.00,23.00,24.00,1.55,-168.90
2018-01-02 06:30:00,3.32,61.75,0.000,298.80,0.50,6.0,45.57,0.00,-303.32,0.0,0,0,0,0,0,22.00,23.00,23.00,23.00,1.80,-168.60
2018-01-02 06:40:00,3.44,59.88,0.000,268.20,0.39,5.8,45.57,0.00,-302.98,0.0,0,0,0,0,0,21.00,23.00,23.00,23.00,1.96,-168.80
2018-01-02 06:50:00,3.24,59.00,0.000,297.60,0.53,6.0,44.21,0.00,-300.95,0.0,0,0,0,0,0,22.00,23.00,23.00,23.00,1.96,-169.00
2018-01-02 07:00:00,3.48,57.62,0.001,231.90,0.35,5.9,45.23,0.00,-300.95,0.0,0,0,0,0,0,21.00,22.00,23.00,24.00,2.04,-168.70
2018-01-02 07:10:00,3.28,58.70,0.002,302.50,0.40,6.0,44.55,0.00,-300.95,0.0,0,0,0,0,53,21.00,23.00,46.00,23.00,2.00,-168.20
2018-01-02 07:20:00,3.36,58.50,0.003,287.40,0.52,6.0,45.57,0.00,-299.59,0.0,0,0,0,0,26,21.00,23.00,23.00,23.00,2.08,-168.20
2018-01-02 07:30:00,3.32,59.78,0.007,303.20,0.37,6.0,44.89,0.00,-306.36,0.0,0,0,0,0,40,22.00,23.00,23.00,23.00,2.12,-168.10